Regional Weather Roundup
Issued by NWS Charleston, SC

Current Version | Previous Version | Graphics & Text | Print | Product List | Glossary On
Versions: 1 2 3 4 5 6 7 8 9 10 11 12 13 14 15 16 17 18 19 20 21 22 23 24 25 26 27 28 29 30 31 32 33 34 35 36 37 38 39 40 41 42 43 44 45 46 47 48 49 50
000
ASUS42 KCHS 301312
RWRCHS

REGIONAL WEATHER ROUNDUP
NATIONAL WEATHER SERVICE CHARLESTON SC
900 AM EDT SUN APR 30 2017

NOTE: "FAIR" INDICATES FEW OR NO CLOUDS BELOW 12,000 FEET WITH NO
SIGNIFICANT WEATHER AND/OR OBSTRUCTIONS TO VISIBILITY.

NOT ALL STATIONS ARE QUALITY CONTROLLED. USE DATA WITH CAUTION...
ESPECIALLY DEWPOINT OBSERVATIONS.

SCZ027-030-031-034>040-042>050-301400-
...SOUTHEAST SOUTH CAROLINA...

CITY           SKY/WX    TMP DP  RH WIND       PRES   REMARKS
N CHARLESTON   MOSUNNY   78  71  79 S12       30.19R
WATERFRONT PRK   N/A     76  73  90 S10       30.16R
JOHNS ISLAND   FAIR      79  73  83 S12       30.19S
PINOPOLIS        N/A     75  72  88 VRB3      30.12R
MONCKS CORNER  FAIR      73  70  88 S7        30.20R
SUMMERVILLE    FAIR      75  70  83 S7        30.20R
BEAUFORT MCAS  RAIN      75  73  94 S13G22    30.17S FOG
BEAUFORT ARPT  RAIN      75  72  88 S12G18    30.17S
HILTON HEAD IS MOSUNNY   75  75 100 S9        30.17S
WALTERBORO     PTSUNNY   77  72  83 SE8       30.19S
ALLENDALE      CLOUDY    75  72  88 SE12      30.15F

...SOUTHERN MIDLANDS AND PEE DEE...

CITY           SKY/WX    TMP DP  RH WIND       PRES   REMARKS
GEORGETOWN     FAIR      75  73  94 S6        30.22R
KINGSTREE      CLOUDY    72  70  94 SE3       30.20S
ORANGEBURG     PTSUNNY   75  69  81 S12G22    30.17F
BARNWELL       CLOUDY    77  73  88 S8        30.16F
AIKEN          CLOUDY    72  68  88 S9        30.19F
MANNING        FAIR      73  70  88 S13       30.19S
COLUMBIA       PTSUNNY   77  69  76 S8        30.15F
SUMTER         CLOUDY    73  70  88 S10       30.16S
FLORENCE       PTSUNNY   73  72  96 S10       30.20S
MYRTLE BEACH   MOSUNNY   75  72  88 S12       30.22R
N MYRTLE BEACH PTSUNNY   77  73  87 S9        30.22R

$$

GAZ063-065-086>088-099>101-113>116-118-119-134>141-150-301400-
...SOUTHEAST GEORGIA...

CITY           SKY/WX    TMP DP  RH WIND       PRES   REMARKS
SAVANNAH ARPT  PTSUNNY   79  69  71 SE14      30.15F
HUNTER AAF     SUNNY     79  75  89 S8G17     30.13F
FORT STEWART   PTSUNNY   77  70  78 SE13      30.11F
STATESBORO     CLOUDY    76  76  99 SE12      30.14F
SYLVANIA       PTSUNNY  N/A N/A N/A S3        30.16F
CLAXTON        PTSUNNY  N/A N/A N/A E6        30.13F

...CSRA...CENTRAL AND FAR SOUTHEAST GEORGIA...

CITY           SKY/WX    TMP DP  RH WIND       PRES   REMARKS
THOMSON        CLOUDY    73  68  83 SW8       30.17S
AUGUSTA-BUSH   MOSUNNY   77  69  76 S12G21    30.12F
AUGUSTA-DANIEL CLOUDY    75  67  76 SE10G16   30.14F
SWAINSBORO     CLOUDY    73  70  88 S13G18    30.15S
VIDALIA        CLOUDY    75  70  83 S9        30.13F
EASTMAN        CLOUDY    77  62  59 S9        30.14R
HAZLEHURST     PTSUNNY   76  73  92 S8        30.11R
ALMA           PTSUNNY   75  71  87 SE10G22   30.11F
WAYCROSS       CLOUDY    79  76  91 S15       30.12S
JESUP          CLOUDY    79  70  73 SE12      30.13F
BAXLEY         CLOUDY    77  77 100 SE7       30.12S
BRUNSWICK      MOSUNNY   77  72  83 S12       30.15S
SAINT SIMONS   PTSUNNY   77  70  79 SE12G18   30.15S

$$

SCZ027-028-034-036>038-045-046-048>050-GAZ119-141-301400-
...LAKE AND SUPPLEMENTAL COASTAL OBSERVATIONS...

STATION/POSITION TIME  TEMP    WIND        PRES    WAVE   SWELL
                       AIR SEA DIR/SP/G            HT/PER HT/PER/DIR
                 (UTC) (F)     (DEG/KT/KT) (MB)    (FT/S) (FT/S/D)
WINYAH BAY       NOT AVBL
LAKE MURRAY      1220   73     180/  7/  8 1021.0
ACE BASIN NERRS  1145   75     150/  2     1022.0
FORT PULASKI     1248   78 77  180/  7/ 13 1021.7F
SAPELO ISLAND    1200   76     150/  9     1021.0

$$

ANZ835-935-AMZ111-154-330-350-352-354-370-450-454-472-301400-
...C-MAN AND BUOY OBSERVATIONS...

STATION/POSITION TIME  TEMP    WIND        PRES    WAVE   SWELL
                       AIR SEA DIR/SP/G            HT/PER HT/PER/DIR
                 (UTC) (F)     (DEG/KT/KT) (MB)    (FT/S) (FT/S/D)
BUOY 41004       1250   76 75  160/ 16/ 17 1022.5R   3/ 7   2/130/ 7
BUOY 41008       1150   75 74  170/ 10/ 12 1020.7    4/ 5   3/130/ 5
FOLLY BEACH CMAN 1200   75     160/ 12/ 13 1022.7R
CAPERS NEARSHORE 1208   76 74  180/ 10/ 16 1022.0R
FRIPP NEARSHORE  1208   75 74  150/ 10/ 12 1021.6R


STATION/POSITION TIME  TEMP    WIND        PRES    WAVE   SWELL
                       AIR SEA DIR/SP/G            HT/PER HT/PER/DIR
                 (UTC) (F)     (DEG/KT/KT) (MB)    (FT/S) (FT/S/D)
5E ST. MARYS GA  1230      75                N/A     4/ 5
FRYING PAN BUOY  1250   76     170/ 14/ 16 1023.4R   4/ 7   2/130/ 7
BUOY 41025       1250   76 74  220/ 14/ 16 1023.8R   3/ 4   2/150/ 7
CAPE LOOKOUT NC  1200   74     210/ 10/ 12 1023.0R
BUOY 41002       1150   74 76  150/ 10/ 10 1025.6    3/ 8   3/ 70/ 8
BUOY 41010       1250   77 78  140/ 19/ 23 1022.3R   6/ 7
ST AUGUSTINE FL  1200   76 76  160/ 19/ 21 1021.1F


$$




USA.gov is the U.S. government's official web portal to all federal, state and local government web resources and services.